COSMOS 252 DEB *, 3938

Orbit data source: Space-Track

COSMOS 252 DEB *, 3938 is space debris in LEO originally from a launch on Fri, 01 Nov 1968 UTC launched from the Tyuratam Missile And Space Complex (TTMTR). Debris objects in space refer to the collection of defunct objects orbiting the Earth. Examples of debris include non-operational satellites, rocket bodies, and fragments generated from explosions, collisions, or faulty payload assembly.

Loading next visibility...
Identifier
3938, 1968-097BS
Orbit
LEO
Country
Flag of CISCIS
Related business
Manufacturer
Unknown
Mission
Spacecraft
Bus & Motor
Unknown
Mass
Unknown
Launch date (UTC)
1968-11-01 (57 years ago)
Launch vehicle
Unknown
Launch site
Tyuratam Missile And Space Complex (TTMTR)
Object type
Payload
Rocket body
Debris
Shape & HBR
Unknown shape, 0.1 m
Radar Cross Section
Small (<0.1 m²)

Expand to show TLE details & history
Last TLE update: 1 day ago

TLE from 1 day ago
0 COSMOS 252 DEB *
1 03938U 68097BS  25287.43465168  .00001429  00000-0  10122-2 0  9998
2 03938  63.0377 347.0611 1056298 300.9003  66.9807 12.55809303540066
Epoch: 2025-10-14T10:25Z
TLE epoch observation values (Epoch: 2025-10-14T10:25:53.905Z)
Latitude
17.35796°
Longitude
176.46564°
Altitude
1,196.644 km
Speed
7.37 km/s
True Right ascension
23h 44m 39s
True Declination
17° 15' 57"
Sunlit
Object was in full shadow at epoch
Visualization orbit readout
Latitude
Unknown
Longitude
Unknown
Altitude
Unknown
Speed
Unknown
Apparent Right ascension
Unknown
Apparent Declination
Unknown
Sunlit
N/A
Visualization observer readout
Local Sidereal Time
06:49:08
Azimuth
Unknown
Elevation
Unknown
Doppler factor
Unknown
Orbital elements
Apogee altitude
2,264.94 km
Perigee altitude
613.454 km
Semi-major axis
7,817.334 km
Eccentricity
0.10563
Inclination
63.0377°
RAAN
347.0611°
Arg. of periapsis
300.9003°
True anomaly
78.64469°
Mean anomaly
66.9807°
Eccentric anomaly
72.76096°
Mean motion
3.14018 °/min
Orbital period
114.64 mins
BSTAR
0.0010122
Loading maneuver chart data...
Computing Atmospheric mass density...
Loading historical data...
Loading historical data...
Loading historical data...
Loading historical data...
Loading historical data...
Loading historical data...
Loading historical data...

Documentation

Showing up to 5 results
|